Time,TemperatureF,DewpointF,PressureIn,WindDirection,WindDirectionDegrees,WindSpeedMPH,WindSpeedGustMPH,Humidity,HourlyPrecipIn,Conditions,Clouds,dailyrainin,SoftwareType,DateUTC
2013-07-17 00:00:00,73.0,72.1,30.17,SW,225,0.0,4.0,97,0.00,,,0.22,Wunderground v.1.15,2013-07-17 04:00:00,
2013-07-17 00:05:00,72.9,72.0,30.17,SW,225,0.0,4.0,97,0.00,,,0.00,Wunderground v.1.15,2013-07-17 04:05:00,
2013-07-17 00:10:00,72.9,72.3,30.17,SW,236,0.0,4.0,98,0.00,,,0.00,Wunderground v.1.15,2013-07-17 04:10:00,
2013-07-17 00:20:00,73.2,72.6,30.17,SW,231,0.0,4.0,98,0.00,,,0.00,Wunderground v.1.15,2013-07-17 04:20:00,
2013-07-17 00:24:00,73.1,72.5,30.18,SW,231,1.0,4.0,98,0.00,,,0.00,Wunderground v.1.15,2013-07-17 04:24:00,
2013-07-17 00:30:00,73.2,72.6,30.17,SW,231,1.0,4.0,98,0.00,,,0.00,Wunderground v.1.15,2013-07-17 04:30:00,
2013-07-17 00:35:00,73.2,72.6,30.17,WSW,239,1.0,4.0,98,0.00,,,0.00,Wunderground v.1.15,2013-07-17 04:35:00,
2013-07-17 00:40:00,73.1,72.5,30.17,WSW,239,0.0,4.0,98,0.00,,,0.00,Wunderground v.1.15,2013-07-17 04:40:00,
2013-07-17 00:45:00,73.0,72.4,30.17,SW,232,0.0,4.0,98,0.00,,,0.00,Wunderground v.1.15,2013-07-17 04:45:00,
2013-07-17 00:49:00,72.9,72.3,30.17,SW,232,0.0,4.0,98,0.00,,,0.00,Wunderground v.1.15,2013-07-17 04:49:00,
2013-07-17 00:54:00,73.0,72.4,30.17,SW,231,0.0,4.0,98,0.00,,,0.00,Wunderground v.1.15,2013-07-17 04:54:00,
2013-07-17 01:00:00,72.9,72.3,30.17,SW,231,0.0,4.0,98,0.00,,,0.00,Wunderground v.1.15,2013-07-17 05:00:00,
2013-07-17 01:05:00,72.9,72.3,30.17,SW,226,0.0,4.0,98,0.00,,,0.00,Wunderground v.1.15,2013-07-17 05:05:00,
2013-07-17 01:10:00,72.9,72.3,30.17,SW,226,0.0,4.0,98,0.00,,,0.00,Wunderground v.1.15,2013-07-17 05:10:00,
2013-07-17 01:15:00,72.9,72.3,30.16,SW,227,0.0,4.0,98,0.00,,,0.00,Wunderground v.1.15,2013-07-17 05:15:00,
2013-07-17 01:20:00,73.0,72.4,30.16,SW,215,1.0,1.0,98,0.00,,,0.00,Wunderground v.1.15,2013-07-17 05:20:00,
2013-07-17 01:25:00,72.9,72.3,30.16,SW,226,1.0,4.0,98,0.00,,,0.00,Wunderground v.1.15,2013-07-17 05:25:00,
2013-07-17 01:30:00,73.0,72.4,30.16,SW,232,1.0,1.0,98,0.00,,,0.00,Wunderground v.1.15,2013-07-17 05:30:00,
2013-07-17 01:34:00,73.0,72.4,30.16,SW,233,1.0,4.0,98,0.00,,,0.00,Wunderground v.1.15,2013-07-17 05:34:00,
2013-07-17 01:40:00,73.0,72.4,30.16,SW,226,0.0,4.0,98,0.00,,,0.00,Wunderground v.1.15,2013-07-17 05:40:00,
2013-07-17 01:45:00,72.9,72.3,30.16,SW,226,0.0,4.0,98,0.00,,,0.00,Wunderground v.1.15,2013-07-17 05:45:00,
2013-07-17 01:50:00,72.9,72.3,30.16,SW,235,0.0,4.0,98,0.00,,,0.00,Wunderground v.1.15,2013-07-17 05:50:00,
2013-07-17 01:55:00,72.9,72.0,30.16,SW,225,1.0,4.0,97,0.00,,,0.00,Wunderground v.1.15,2013-07-17 05:55:00,
2013-07-17 02:00:00,72.9,72.3,30.16,SW,218,0.0,4.0,98,0.00,,,0.00,Wunderground v.1.15,2013-07-17 06:00:00,
2013-07-17 02:05:00,72.9,72.3,30.15,SW,221,0.0,4.0,98,0.00,,,0.00,Wunderground v.1.15,2013-07-17 06:05:00,
2013-07-17 02:10:00,72.9,72.3,30.16,SW,215,0.0,4.0,98,0.00,,,0.00,Wunderground v.1.15,2013-07-17 06:10:00,
2013-07-17 02:14:00,72.9,72.0,30.15,SW,219,0.0,4.0,97,0.00,,,0.00,Wunderground v.1.15,2013-07-17 06:14:00,
2013-07-17 02:20:00,72.9,72.0,30.15,SW,219,0.0,4.0,97,0.00,,,0.00,Wunderground v.1.15,2013-07-17 06:20:00,
2013-07-17 02:25:00,72.8,71.9,30.15,SW,218,0.0,4.0,97,0.00,,,0.00,Wunderground v.1.15,2013-07-17 06:25:00,
2013-07-17 02:30:00,72.8,72.2,30.15,SW,233,0.0,4.0,98,0.00,,,0.00,Wunderground v.1.15,2013-07-17 06:30:00,
2013-07-17 02:35:00,72.8,72.2,30.15,SW,227,0.0,4.0,98,0.00,,,0.00,Wunderground v.1.15,2013-07-17 06:35:00,
2013-07-17 02:40:00,72.8,71.9,30.15,SW,221,0.0,4.0,97,0.00,,,0.00,Wunderground v.1.15,2013-07-17 06:40:00,
2013-07-17 02:45:00,72.8,72.2,30.15,SW,228,0.0,4.0,98,0.00,,,0.00,Wunderground v.1.15,2013-07-17 06:45:00,
2013-07-17 02:49:00,72.8,71.9,30.15,SSW,205,1.0,1.0,97,0.00,,,0.00,Wunderground v.1.15,2013-07-17 06:49:00,
2013-07-17 02:55:00,72.8,71.9,30.14,SSW,205,0.0,4.0,97,0.00,,,0.00,Wunderground v.1.15,2013-07-17 06:55:00,
2013-07-17 03:00:00,72.7,72.1,30.14,SW,214,0.0,4.0,98,0.00,,,0.00,Wunderground v.1.15,2013-07-17 07:00:00,
2013-07-17 03:05:00,72.8,72.2,30.14,SW,217,0.0,4.0,98,0.00,,,0.00,Wunderground v.1.15,2013-07-17 07:05:00,
2013-07-17 03:10:00,72.7,72.1,30.14,SW,219,1.0,1.0,98,0.00,,,0.00,Wunderground v.1.15,2013-07-17 07:10:00,
2013-07-17 03:15:00,72.7,72.1,30.14,SW,229,0.0,4.0,98,0.00,,,0.00,Wunderground v.1.15,2013-07-17 07:15:00,
2013-07-17 03:20:00,72.7,72.1,30.14,SW,235,0.0,4.0,98,0.00,,,0.00,Wunderground v.1.15,2013-07-17 07:20:00,
2013-07-17 03:24:00,72.7,72.1,30.14,SW,217,1.0,4.0,98,0.00,,,0.00,Wunderground v.1.15,2013-07-17 07:24:00,
2013-07-17 03:30:00,72.8,72.2,30.14,SW,217,1.0,1.0,98,0.00,,,0.00,Wunderground v.1.15,2013-07-17 07:30:00,
2013-07-17 03:35:00,72.8,72.2,30.14,SW,233,1.0,4.0,98,0.00,,,0.00,Wunderground v.1.15,2013-07-17 07:35:00,
2013-07-17 03:40:00,72.8,72.2,30.13,SW,222,1.0,4.0,98,0.00,,,0.00,Wunderground v.1.15,2013-07-17 07:40:00,
2013-07-17 03:45:00,72.9,72.3,30.13,SW,226,1.0,4.0,98,0.00,,,0.00,Wunderground v.1.15,2013-07-17 07:45:00,
2013-07-17 03:50:00,72.8,72.2,30.13,SW,231,1.0,1.0,98,0.00,,,0.00,Wunderground v.1.15,2013-07-17 07:50:00,
2013-07-17 03:55:00,72.8,72.2,30.13,SW,228,0.0,4.0,98,0.00,,,0.00,Wunderground v.1.15,2013-07-17 07:55:00,
2013-07-17 04:00:00,72.8,72.2,30.13,SW,221,0.0,4.0,98,0.00,,,0.00,Wunderground v.1.15,2013-07-17 08:00:00,
2013-07-17 04:04:00,72.8,72.2,30.13,SW,214,0.0,4.0,98,0.00,,,0.00,Wunderground v.1.15,2013-07-17 08:04:00,
2013-07-17 04:10:00,72.8,72.2,30.13,SW,217,0.0,4.0,98,0.00,,,0.00,Wunderground v.1.15,2013-07-17 08:10:00,
2013-07-17 04:15:00,72.7,72.1,30.13,SSW,210,1.0,4.0,98,0.00,,,0.00,Wunderground v.1.15,2013-07-17 08:15:00,
2013-07-17 04:20:00,72.7,72.1,30.13,SW,226,1.0,4.0,98,0.00,,,0.00,Wunderground v.1.15,2013-07-17 08:20:00,
2013-07-17 04:25:00,72.7,72.1,30.13,SW,219,1.0,4.0,98,0.00,,,0.00,Wunderground v.1.15,2013-07-17 08:25:00,
2013-07-17 04:30:00,72.6,72.0,30.13,SW,221,0.0,4.0,98,0.00,,,0.00,Wunderground v.1.15,2013-07-17 08:30:00,
2013-07-17 04:35:00,72.6,72.0,30.13,SSW,202,0.0,4.0,98,0.00,,,0.00,Wunderground v.1.15,2013-07-17 08:35:00,
2013-07-17 04:39:00,72.6,72.0,30.13,SW,228,1.0,4.0,98,0.00,,,0.00,Wunderground v.1.15,2013-07-17 08:39:00,
2013-07-17 04:45:00,72.6,72.0,30.13,SW,218,1.0,4.0,98,0.00,,,0.00,Wunderground v.1.15,2013-07-17 08:45:00,
2013-07-17 04:50:00,72.6,72.0,30.13,SW,220,0.0,4.0,98,0.00,,,0.00,Wunderground v.1.15,2013-07-17 08:50:00,
2013-07-17 04:55:00,72.7,72.1,30.13,SW,217,0.0,4.0,98,0.00,,,0.00,Wunderground v.1.15,2013-07-17 08:55:00,
2013-07-17 05:00:00,72.7,72.1,30.13,SW,219,1.0,1.0,98,0.00,,,0.00,Wunderground v.1.15,2013-07-17 09:00:00,
2013-07-17 05:05:00,72.6,72.0,30.14,SW,221,1.0,4.0,98,0.00,,,0.00,Wunderground v.1.15,2013-07-17 09:05:00,
2013-07-17 05:10:00,72.7,72.1,30.14,SW,226,0.0,4.0,98,0.00,,,0.00,Wunderground v.1.15,2013-07-17 09:10:00,
2013-07-17 05:15:00,72.6,72.0,30.13,SW,221,1.0,4.0,98,0.00,,,0.00,Wunderground v.1.15,2013-07-17 09:15:00,
2013-07-17 05:19:00,72.6,72.0,30.14,SW,217,1.0,1.0,98,0.00,,,0.00,Wunderground v.1.15,2013-07-17 09:19:00,
2013-07-17 05:25:00,72.7,72.1,30.14,SW,231,1.0,4.0,98,0.00,,,0.00,Wunderground v.1.15,2013-07-17 09:25:00,
2013-07-17 05:30:00,72.6,72.0,30.14,SW,225,0.0,4.0,98,0.00,,,0.00,Wunderground v.1.15,2013-07-17 09:30:00,
2013-07-17 05:35:00,72.6,72.0,30.14,SSW,199,0.0,4.0,98,0.00,,,0.00,Wunderground v.1.15,2013-07-17 09:35:00,
2013-07-17 05:40:00,72.6,72.3,30.14,SSW,211,0.0,4.0,99,0.00,,,0.00,Wunderground v.1.15,2013-07-17 09:40:00,
2013-07-17 05:45:00,72.7,72.4,30.14,SW,226,0.0,4.0,99,0.00,,,0.00,Wunderground v.1.15,2013-07-17 09:45:00,
2013-07-17 05:50:00,72.7,72.4,30.14,SW,218,0.0,4.0,99,0.00,,,0.00,Wunderground v.1.15,2013-07-17 09:50:00,
2013-07-17 05:55:00,72.7,72.4,30.14,SW,219,0.0,4.0,99,0.00,,,0.00,Wunderground v.1.15,2013-07-17 09:55:00,
2013-07-17 06:00:00,72.7,72.4,30.14,SW,219,0.0,4.0,99,0.00,,,0.00,Wunderground v.1.15,2013-07-17 10:00:00,
2013-07-17 06:04:00,72.7,72.4,30.14,SW,219,0.0,4.0,99,0.00,,,0.00,Wunderground v.1.15,2013-07-17 10:04:00,
2013-07-17 06:10:00,72.7,72.4,30.14,SW,227,0.0,4.0,99,0.00,,,0.00,Wunderground v.1.15,2013-07-17 10:10:00,
2013-07-17 06:20:00,72.7,72.4,30.14,SW,225,0.0,4.0,99,0.00,,,0.00,Wunderground v.1.15,2013-07-17 10:20:00,
2013-07-17 06:25:00,72.7,72.4,30.14,SSW,212,0.0,4.0,99,0.00,,,0.00,Wunderground v.1.15,2013-07-17 10:25:00,
2013-07-17 06:30:00,72.7,72.4,30.14,SW,217,0.0,4.0,99,0.00,,,0.00,Wunderground v.1.15,2013-07-17 10:30:00,
2013-07-17 06:35:00,72.7,72.4,30.14,SW,225,0.0,4.0,99,0.00,,,0.00,Wunderground v.1.15,2013-07-17 10:35:00,
2013-07-17 06:45:00,72.7,72.4,30.14,SW,221,0.0,4.0,99,0.00,,,0.00,Wunderground v.1.15,2013-07-17 10:45:00,
2013-07-17 06:49:00,72.7,72.4,30.14,SW,215,0.0,4.0,99,0.00,,,0.00,Wunderground v.1.15,2013-07-17 10:49:00,
2013-07-17 06:55:00,72.8,72.5,30.14,SW,216,0.0,4.0,99,0.00,,,0.00,Wunderground v.1.15,2013-07-17 10:55:00,
2013-07-17 07:00:00,72.9,72.6,30.14,SW,219,0.0,4.0,99,0.00,,,0.00,Wunderground v.1.15,2013-07-17 11:00:00,
2013-07-17 07:05:00,73.1,72.8,30.15,SW,225,0.0,4.0,99,0.00,,,0.00,Wunderground v.1.15,2013-07-17 11:05:00,
2013-07-17 07:10:00,73.3,73.0,30.15,SW,215,0.0,4.0,99,0.00,,,0.00,Wunderground v.1.15,2013-07-17 11:10:00,
2013-07-17 07:15:00,73.6,73.3,30.15,SW,217,1.0,4.0,99,0.00,,,0.00,Wunderground v.1.15,2013-07-17 11:15:00,
2013-07-17 07:20:00,73.7,73.4,30.15,SSW,193,1.0,4.0,99,0.00,,,0.00,Wunderground v.1.15,2013-07-17 11:20:00,
2013-07-17 07:24:00,73.8,73.2,30.15,SW,231,1.0,4.0,98,0.00,,,0.00,Wunderground v.1.15,2013-07-17 11:24:00,
2013-07-17 07:30:00,73.8,73.2,30.15,SW,235,1.0,1.0,98,0.00,,,0.00,Wunderground v.1.15,2013-07-17 11:30:00,
2013-07-17 07:35:00,74.5,73.9,30.16,SW,229,1.0,2.0,98,0.00,,,0.00,Wunderground v.1.15,2013-07-17 11:35:00,
2013-07-17 07:40:00,75.3,74.7,30.16,SSW,213,1.0,4.0,98,0.00,,,0.00,Wunderground v.1.15,2013-07-17 11:40:00,
2013-07-17 07:45:00,75.8,74.6,30.16,SW,219,1.0,4.0,96,0.00,,,0.00,Wunderground v.1.15,2013-07-17 11:45:00,
2013-07-17 07:50:00,76.2,74.7,30.16,SW,235,1.0,4.0,95,0.00,,,0.00,Wunderground v.1.15,2013-07-17 11:50:00,
2013-07-17 07:55:00,76.6,75.1,30.16,SW,221,1.0,4.0,95,0.00,,,0.00,Wunderground v.1.15,2013-07-17 11:55:00,
2013-07-17 08:00:00,77.0,75.5,30.17,SW,229,1.0,4.0,95,0.00,,,0.00,Wunderground v.1.15,2013-07-17 12:00:00,
2013-07-17 08:04:00,76.8,74.9,30.17,WSW,242,2.0,4.0,94,0.00,,,0.00,Wunderground v.1.15,2013-07-17 12:04:00,
2013-07-17 08:10:00,76.7,75.2,30.17,WSW,241,2.0,4.0,95,0.00,,,0.00,Wunderground v.1.15,2013-07-17 12:10:00,
2013-07-17 08:15:00,77.2,75.7,30.17,WSW,239,2.0,4.0,95,0.00,,,0.00,Wunderground v.1.15,2013-07-17 12:15:00,
2013-07-17 08:20:00,77.7,75.8,30.17,WSW,240,3.0,7.0,94,0.00,,,0.00,Wunderground v.1.15,2013-07-17 12:20:00,
2013-07-17 08:25:00,77.5,75.3,30.17,WSW,248,3.0,7.0,93,0.00,,,0.01,Wunderground v.1.15,2013-07-17 12:25:00,
2013-07-17 08:30:00,78.3,76.1,30.18,WSW,257,4.0,5.0,93,0.00,,,0.01,Wunderground v.1.15,2013-07-17 12:30:00,
2013-07-17 08:35:00,79.0,76.5,30.17,WSW,252,3.0,5.0,92,0.00,,,0.01,Wunderground v.1.15,2013-07-17 12:35:00,
2013-07-17 08:40:00,79.5,76.6,30.18,SW,231,3.0,3.0,91,0.00,,,0.01,Wunderground v.1.15,2013-07-17 12:40:00,
2013-07-17 08:45:00,79.7,76.8,30.18,SSW,207,3.0,4.0,91,0.00,,,0.01,Wunderground v.1.15,2013-07-17 12:45:00,
2013-07-17 08:49:00,79.8,76.6,30.17,WSW,241,4.0,4.0,90,0.00,,,0.01,Wunderground v.1.15,2013-07-17 12:49:00,
2013-07-17 08:54:00,80.2,77.0,30.18,WSW,239,4.0,4.0,90,0.00,,,0.01,Wunderground v.1.15,2013-07-17 12:54:00,
2013-07-17 08:59:00,80.5,77.0,30.18,WSW,248,4.0,7.0,89,0.00,,,0.01,Wunderground v.1.15,2013-07-17 12:59:00,
2013-07-17 09:05:00,80.5,77.3,30.18,WSW,239,4.0,7.0,90,0.00,,,0.01,Wunderground v.1.15,2013-07-17 13:05:00,
2013-07-17 09:10:00,80.3,76.8,30.18,SW,224,4.0,4.0,89,0.00,,,0.01,Wunderground v.1.15,2013-07-17 13:10:00,
2013-07-17 09:15:00,80.3,77.1,30.18,SSW,208,4.0,4.0,90,0.00,,,0.01,Wunderground v.1.15,2013-07-17 13:15:00,
2013-07-17 09:20:00,80.7,77.2,30.17,SW,235,3.0,3.0,89,0.00,,,0.01,Wunderground v.1.15,2013-07-17 13:20:00,
2013-07-17 09:25:00,80.7,77.2,30.17,SW,229,4.0,4.0,89,0.00,,,0.01,Wunderground v.1.15,2013-07-17 13:25:00,
2013-07-17 09:30:00,80.7,76.8,30.17,WSW,237,4.0,4.0,88,0.00,,,0.01,Wunderground v.1.15,2013-07-17 13:30:00,
2013-07-17 09:39:00,81.4,77.2,30.17,West,259,4.0,5.0,87,0.00,,,0.01,Wunderground v.1.15,2013-07-17 13:39:00,
2013-07-17 09:44:00,81.5,77.3,30.16,SW,229,4.0,5.0,87,0.00,,,0.01,Wunderground v.1.15,2013-07-17 13:44:00,
2013-07-17 09:50:00,81.6,78.0,30.16,SW,222,5.0,5.0,89,0.00,,,0.01,Wunderground v.1.15,2013-07-17 13:50:00,
2013-07-17 09:55:00,82.1,77.5,30.16,WSW,243,5.0,5.0,86,0.00,,,0.01,Wunderground v.1.15,2013-07-17 13:55:00,
2013-07-17 10:00:00,82.3,77.7,30.16,South,180,5.0,5.0,86,0.00,,,0.01,Wunderground v.1.15,2013-07-17 14:00:00,
2013-07-17 10:05:00,82.4,77.8,30.16,WSW,240,5.0,5.0,86,0.00,,,0.01,Wunderground v.1.15,2013-07-17 14:05:00,
2013-07-17 10:10:00,82.4,77.4,30.16,SW,220,5.0,5.0,85,0.00,,,0.01,Wunderground v.1.15,2013-07-17 14:10:00,
2013-07-17 10:15:00,82.5,76.8,30.16,WSW,248,5.0,5.0,83,0.00,,,0.01,Wunderground v.1.15,2013-07-17 14:15:00,
2013-07-17 10:19:00,82.5,77.2,30.16,WSW,249,5.0,5.0,84,0.00,,,0.01,Wunderground v.1.15,2013-07-17 14:19:00,
2013-07-17 10:24:00,82.7,77.7,30.16,SW,233,4.0,5.0,85,0.00,,,0.01,Wunderground v.1.15,2013-07-17 14:24:00,
2013-07-17 10:30:00,82.9,76.8,30.16,West,274,4.0,4.0,82,0.00,,,0.01,Wunderground v.1.15,2013-07-17 14:30:00,
2013-07-17 10:35:00,83.6,77.5,30.16,SSW,210,4.0,4.0,82,0.00,,,0.01,Wunderground v.1.15,2013-07-17 14:35:00,
2013-07-17 10:40:00,84.3,78.2,30.16,SSW,193,5.0,5.0,82,0.00,,,0.01,Wunderground v.1.15,2013-07-17 14:40:00,
2013-07-17 10:45:00,83.8,76.2,30.16,WSW,247,6.0,6.0,78,0.00,,,0.01,Wunderground v.1.15,2013-07-17 14:45:00,
2013-07-17 10:50:00,83.6,76.8,30.16,WSW,244,6.0,6.0,80,0.00,,,0.01,Wunderground v.1.15,2013-07-17 14:50:00,
2013-07-17 10:55:00,84.0,77.2,30.16,WSW,237,5.0,6.0,80,0.00,,,0.01,Wunderground v.1.15,2013-07-17 14:55:00,
2013-07-17 10:59:00,84.3,77.1,30.16,West,266,4.0,4.0,79,0.00,,,0.01,Wunderground v.1.15,2013-07-17 14:59:00,
2013-07-17 11:04:00,84.8,77.6,30.16,SW,226,4.0,5.0,79,0.00,,,0.01,Wunderground v.1.15,2013-07-17 15:04:00,
2013-07-17 11:10:00,85.0,77.0,30.16,West,281,5.0,5.0,77,0.00,,,0.01,Wunderground v.1.15,2013-07-17 15:10:00,
2013-07-17 11:15:00,85.3,76.9,30.16,West,259,5.0,5.0,76,0.00,,,0.01,Wunderground v.1.15,2013-07-17 15:15:00,
2013-07-17 11:20:00,85.0,75.4,30.16,WSW,239,6.0,6.0,73,0.00,,,0.01,Wunderground v.1.15,2013-07-17 15:20:00,
2013-07-17 11:25:00,85.2,75.6,30.16,WSW,252,6.0,7.0,73,0.00,,,0.01,Wunderground v.1.15,2013-07-17 15:25:00,
2013-07-17 11:30:00,85.1,75.5,30.16,WSW,245,6.0,6.0,73,0.00,,,0.01,Wunderground v.1.15,2013-07-17 15:30:00,
2013-07-17 11:35:00,85.6,75.5,30.16,WNW,295,5.0,6.0,72,0.00,,,0.01,Wunderground v.1.15,2013-07-17 15:35:00,
2013-07-17 11:45:00,85.6,74.7,30.16,West,264,7.0,7.0,70,0.00,,,0.01,Wunderground v.1.15,2013-07-17 15:45:00,
2013-07-17 11:50:00,85.3,74.8,30.15,WNW,296,6.0,6.0,71,0.00,,,0.01,Wunderground v.1.15,2013-07-17 15:50:00,
2013-07-17 11:55:00,85.8,75.7,30.15,WSW,246,6.0,7.0,72,0.00,,,0.01,Wunderground v.1.15,2013-07-17 15:55:00,
2013-07-17 12:00:00,86.0,76.3,30.15,WSW,254,6.0,6.0,73,0.00,,,0.01,Wunderground v.1.15,2013-07-17 16:00:00,
2013-07-17 12:05:00,86.2,76.1,30.15,West,261,6.0,6.0,72,0.00,,,0.01,Wunderground v.1.15,2013-07-17 16:05:00,
2013-07-17 12:10:00,85.8,76.5,30.15,West,261,5.0,5.0,74,0.00,,,0.01,Wunderground v.1.15,2013-07-17 16:10:00,
2013-07-17 12:15:00,86.5,76.0,30.15,WSW,252,5.0,9.0,71,0.00,,,0.01,Wunderground v.1.15,2013-07-17 16:15:00,
2013-07-17 12:19:00,85.9,75.4,30.15,West,264,5.0,6.0,71,0.00,,,0.01,Wunderground v.1.15,2013-07-17 16:19:00,
2013-07-17 12:25:00,86.0,75.1,30.15,West,267,6.0,6.0,70,0.00,,,0.01,Wunderground v.1.15,2013-07-17 16:25:00,
2013-07-17 12:29:00,86.1,75.2,30.15,WSW,241,6.0,8.0,70,0.00,,,0.01,Wunderground v.1.15,2013-07-17 16:29:00,
2013-07-17 12:35:00,86.7,76.2,30.15,WSW,243,7.0,8.0,71,0.00,,,0.01,Wunderground v.1.15,2013-07-17 16:35:00,
2013-07-17 12:40:00,87.2,75.3,30.15,SSW,200,7.0,7.0,68,0.00,,,0.01,Wunderground v.1.15,2013-07-17 16:40:00,
2013-07-17 12:45:00,87.0,74.3,30.15,WSW,245,7.0,10.0,66,0.00,,,0.01,Wunderground v.1.15,2013-07-17 16:45:00,
2013-07-17 12:50:00,87.2,75.8,30.15,WSW,252,7.0,8.0,69,0.00,,,0.01,Wunderground v.1.15,2013-07-17 16:50:00,
2013-07-17 12:55:00,87.7,74.5,30.15,WNW,298,6.0,9.0,65,0.00,,,0.01,Wunderground v.1.15,2013-07-17 16:55:00,
2013-07-17 13:05:00,87.6,75.7,30.14,WSW,252,6.0,7.0,68,0.00,,,0.01,Wunderground v.1.15,2013-07-17 17:05:00,
2013-07-17 13:09:00,88.0,75.2,30.14,WNW,296,6.0,7.0,66,0.00,,,0.01,Wunderground v.1.15,2013-07-17 17:09:00,
2013-07-17 13:15:00,88.1,74.4,30.14,West,278,6.0,7.0,64,0.00,,,0.01,Wunderground v.1.15,2013-07-17 17:15:00,
2013-07-17 13:20:00,87.8,73.6,30.14,West,271,7.0,10.0,63,0.00,,,0.01,Wunderground v.1.15,2013-07-17 17:20:00,
2013-07-17 13:25:00,87.8,73.6,30.13,West,265,7.0,10.0,63,0.00,,,0.01,Wunderground v.1.15,2013-07-17 17:25:00,
2013-07-17 13:30:00,88.1,74.4,30.13,West,266,7.0,7.0,64,0.00,,,0.01,Wunderground v.1.15,2013-07-17 17:30:00,
2013-07-17 13:35:00,88.3,75.5,30.13,WSW,254,5.0,10.0,66,0.00,,,0.01,Wunderground v.1.15,2013-07-17 17:35:00,
2013-07-17 13:40:00,88.7,74.0,30.13,WSW,243,5.0,6.0,62,0.00,,,0.01,Wunderground v.1.15,2013-07-17 17:40:00,
2013-07-17 13:44:00,89.1,76.3,30.13,West,266,6.0,6.0,66,0.00,,,0.01,Wunderground v.1.15,2013-07-17 17:44:00,
2013-07-17 13:49:00,88.5,72.8,30.13,West,276,7.0,7.0,60,0.00,,,0.01,Wunderground v.1.15,2013-07-17 17:49:00,
2013-07-17 13:55:00,88.4,72.7,30.13,NW,319,8.0,9.0,60,0.00,,,0.01,Wunderground v.1.15,2013-07-17 17:55:00,
2013-07-17 14:00:00,88.4,72.7,30.13,WSW,252,9.0,9.0,60,0.00,,,0.01,Wunderground v.1.15,2013-07-17 18:00:00,
2013-07-17 14:05:00,88.8,75.5,30.12,WSW,245,8.0,9.0,65,0.00,,,0.01,Wunderground v.1.15,2013-07-17 18:05:00,
2013-07-17 14:10:00,89.0,75.2,30.12,WSW,240,8.0,8.0,64,0.00,,,0.01,Wunderground v.1.15,2013-07-17 18:10:00,
2013-07-17 14:15:00,89.1,73.9,30.12,West,274,8.0,8.0,61,0.00,,,0.01,Wunderground v.1.15,2013-07-17 18:15:00,
2013-07-17 14:20:00,89.0,74.8,30.11,WNW,302,7.0,7.0,63,0.00,,,0.01,Wunderground v.1.15,2013-07-17 18:20:00,
2013-07-17 14:25:00,88.7,73.5,30.11,WNW,284,7.0,9.0,61,0.00,,,0.01,Wunderground v.1.15,2013-07-17 18:25:00,
2013-07-17 14:29:00,88.3,74.1,30.11,WNW,286,8.0,8.0,63,0.00,,,0.01,Wunderground v.1.15,2013-07-17 18:29:00,
2013-07-17 14:34:00,87.5,73.8,30.12,West,274,7.0,8.0,64,0.00,,,0.01,Wunderground v.1.15,2013-07-17 18:34:00,
2013-07-17 14:40:00,86.4,73.7,30.12,West,267,7.0,7.0,66,0.00,,,0.01,Wunderground v.1.15,2013-07-17 18:40:00,
2013-07-17 14:45:00,85.8,74.0,30.12,WNW,287,7.0,7.0,68,0.00,,,0.01,Wunderground v.1.15,2013-07-17 18:45:00,
2013-07-17 14:50:00,85.3,74.8,30.11,West,269,6.0,10.0,71,0.00,,,0.01,Wunderground v.1.15,2013-07-17 18:50:00,
2013-07-17 14:55:00,84.9,74.9,30.11,NNE,25,5.0,10.0,72,0.00,,,0.01,Wunderground v.1.15,2013-07-17 18:55:00,
2013-07-17 15:00:00,85.4,76.6,30.11,WNW,295,4.0,4.0,75,0.00,,,0.01,Wunderground v.1.15,2013-07-17 19:00:00,
2013-07-17 15:05:00,86.7,75.7,30.11,West,273,4.0,4.0,70,0.00,,,0.01,Wunderground v.1.15,2013-07-17 19:05:00,
2013-07-17 15:10:00,87.5,75.2,30.10,WSW,249,5.0,5.0,67,0.00,,,0.01,Wunderground v.1.15,2013-07-17 19:10:00,
2013-07-17 15:14:00,88.3,74.6,30.10,WSW,248,6.0,18.0,64,0.00,,,0.01,Wunderground v.1.15,2013-07-17 19:14:00,
2013-07-17 15:19:00,87.6,75.7,30.11,SW,225,8.0,8.0,68,0.00,,,0.01,Wunderground v.1.15,2013-07-17 19:19:00,
2013-07-17 15:24:00,85.9,74.5,30.11,West,271,7.0,8.0,69,0.00,,,0.01,Wunderground v.1.15,2013-07-17 19:24:00,
2013-07-17 15:30:00,83.4,72.6,30.11,West,267,5.0,5.0,70,0.00,,,0.01,Wunderground v.1.15,2013-07-17 19:30:00,
2013-07-17 15:35:00,82.3,72.8,30.10,West,259,4.0,5.0,73,0.00,,,0.01,Wunderground v.1.15,2013-07-17 19:35:00,
2013-07-17 15:40:00,82.1,73.4,30.11,WSW,247,2.0,2.0,75,0.00,,,0.01,Wunderground v.1.15,2013-07-17 19:40:00,
2013-07-17 15:45:00,82.1,74.2,30.11,WSW,255,2.0,4.0,77,0.00,,,0.01,Wunderground v.1.15,2013-07-17 19:45:00,
2013-07-17 15:49:00,82.6,75.0,30.11,SW,236,3.0,3.0,78,0.00,,,0.01,Wunderground v.1.15,2013-07-17 19:49:00,
2013-07-17 15:55:00,82.4,74.8,30.11,WSW,242,5.0,5.0,78,0.00,,,0.01,Wunderground v.1.15,2013-07-17 19:55:00,
2013-07-17 16:04:00,80.2,75.3,30.12,WSW,252,5.0,6.0,85,0.15,,,0.09,Wunderground v.1.15,2013-07-17 20:04:00,
2013-07-17 16:10:00,79.4,73.4,30.12,NW,309,5.0,6.0,82,0.07,,,0.09,Wunderground v.1.15,2013-07-17 20:10:00,
2013-07-17 16:15:00,78.5,71.8,30.12,WNW,285,7.0,7.0,80,0.04,,,0.09,Wunderground v.1.15,2013-07-17 20:15:00,
2013-07-17 16:20:00,77.9,71.6,30.11,WNW,282,7.0,7.0,81,0.00,,,0.09,Wunderground v.1.15,2013-07-17 20:20:00,
2013-07-17 16:25:00,77.4,71.5,30.12,WNW,284,6.0,7.0,82,0.00,,,0.09,Wunderground v.1.15,2013-07-17 20:25:00,
2013-07-17 16:35:00,76.7,72.2,30.12,WSW,239,5.0,6.0,86,0.00,,,0.09,Wunderground v.1.15,2013-07-17 20:35:00,
2013-07-17 16:40:00,76.1,72.3,30.13,West,259,4.0,4.0,88,0.00,,,0.09,Wunderground v.1.15,2013-07-17 20:40:00,
2013-07-17 16:45:00,75.6,72.1,30.13,WSW,255,4.0,5.0,89,0.00,,,0.09,Wunderground v.1.15,2013-07-17 20:45:00,
2013-07-17 16:55:00,75.2,72.4,30.13,WSW,247,3.0,4.0,91,0.00,,,0.09,Wunderground v.1.15,2013-07-17 20:55:00,
2013-07-17 17:00:00,75.1,72.3,30.13,WSW,240,2.0,2.0,91,0.00,,,0.09,Wunderground v.1.15,2013-07-17 21:00:00,
2013-07-17 17:05:00,75.0,72.5,30.12,WSW,239,1.0,4.0,92,0.00,,,0.09,Wunderground v.1.15,2013-07-17 21:05:00,
2013-07-17 17:10:00,75.0,72.5,30.12,SW,231,1.0,4.0,92,0.00,,,0.09,Wunderground v.1.15,2013-07-17 21:10:00,
2013-07-17 17:15:00,74.9,72.4,30.12,WSW,245,1.0,4.0,92,0.00,,,0.09,Wunderground v.1.15,2013-07-17 21:15:00,
2013-07-17 17:20:00,74.9,72.7,30.11,WSW,245,2.0,4.0,93,0.00,,,0.09,Wunderground v.1.15,2013-07-17 21:20:00,
2013-07-17 17:24:00,75.0,72.8,30.11,WSW,238,2.0,4.0,93,0.00,,,0.09,Wunderground v.1.15,2013-07-17 21:24:00,
2013-07-17 17:29:00,75.1,72.9,30.11,SW,232,2.0,4.0,93,0.00,,,0.09,Wunderground v.1.15,2013-07-17 21:29:00,
2013-07-17 17:35:00,75.1,72.9,30.11,WSW,253,1.0,4.0,93,0.00,,,0.09,Wunderground v.1.15,2013-07-17 21:35:00,
2013-07-17 17:40:00,75.2,72.7,30.11,WSW,240,2.0,4.0,92,0.00,,,0.09,Wunderground v.1.15,2013-07-17 21:40:00,
2013-07-17 17:45:00,75.3,73.1,30.11,WSW,241,1.0,4.0,93,0.00,,,0.09,Wunderground v.1.15,2013-07-17 21:45:00,
2013-07-17 17:50:00,75.4,73.2,30.11,WSW,238,1.0,4.0,93,0.00,,,0.09,Wunderground v.1.15,2013-07-17 21:50:00,
2013-07-17 17:55:00,75.5,73.3,30.12,WSW,244,1.0,4.0,93,0.00,,,0.09,Wunderground v.1.15,2013-07-17 21:55:00,
2013-07-17 18:00:00,75.5,73.3,30.12,SW,231,1.0,4.0,93,0.00,,,0.09,Wunderground v.1.15,2013-07-17 22:00:00,
2013-07-17 18:10:00,75.7,73.5,30.11,SW,229,1.0,4.0,93,0.00,,,0.09,Wunderground v.1.15,2013-07-17 22:10:00,
2013-07-17 18:15:00,75.8,73.6,30.11,WSW,249,2.0,4.0,93,0.00,,,0.09,Wunderground v.1.15,2013-07-17 22:15:00,
2013-07-17 18:20:00,75.9,73.7,30.11,West,271,2.0,4.0,93,0.00,,,0.09,Wunderground v.1.15,2013-07-17 22:20:00,
2013-07-17 18:25:00,76.0,73.8,30.10,WSW,243,2.0,4.0,93,0.00,,,0.09,Wunderground v.1.15,2013-07-17 22:25:00,
2013-07-17 18:30:00,76.1,73.9,30.10,WSW,240,2.0,2.0,93,0.00,,,0.09,Wunderground v.1.15,2013-07-17 22:30:00,
2013-07-17 18:35:00,76.2,74.0,30.10,WSW,240,2.0,4.0,93,0.00,,,0.09,Wunderground v.1.15,2013-07-17 22:35:00,
2013-07-17 18:39:00,76.3,73.8,30.10,WSW,244,3.0,3.0,92,0.00,,,0.09,Wunderground v.1.15,2013-07-17 22:39:00,
2013-07-17 18:44:00,76.4,73.9,30.09,WSW,252,2.0,4.0,92,0.00,,,0.09,Wunderground v.1.15,2013-07-17 22:44:00,
2013-07-17 18:49:00,76.5,74.0,30.10,WSW,240,2.0,4.0,92,0.00,,,0.09,Wunderground v.1.15,2013-07-17 22:49:00,
2013-07-17 18:55:00,76.6,74.1,30.09,SW,232,2.0,5.0,92,0.00,,,0.09,Wunderground v.1.15,2013-07-17 22:55:00,
2013-07-17 19:00:00,76.7,74.2,30.09,WSW,238,3.0,4.0,92,0.00,,,0.09,Wunderground v.1.15,2013-07-17 23:00:00,
2013-07-17 19:05:00,76.8,74.6,30.09,WSW,245,2.0,4.0,93,0.00,,,0.09,Wunderground v.1.15,2013-07-17 23:05:00,
2013-07-17 19:10:00,76.8,74.6,30.09,WSW,248,2.0,2.0,93,0.00,,,0.09,Wunderground v.1.15,2013-07-17 23:10:00,
2013-07-17 19:14:00,76.8,74.3,30.09,WSW,255,2.0,2.0,92,0.00,,,0.09,Wunderground v.1.15,2013-07-17 23:14:00,
2013-07-17 19:19:00,76.9,74.4,30.09,WSW,240,2.0,2.0,92,0.00,,,0.09,Wunderground v.1.15,2013-07-17 23:19:00,
2013-07-17 19:24:00,77.0,74.5,30.09,WSW,257,2.0,2.0,92,0.00,,,0.09,Wunderground v.1.15,2013-07-17 23:24:00,
2013-07-17 19:30:00,77.0,74.5,30.09,SW,231,2.0,3.0,92,0.00,,,0.09,Wunderground v.1.15,2013-07-17 23:30:00,
2013-07-17 19:35:00,77.0,74.5,30.10,WSW,249,2.0,3.0,92,0.00,,,0.09,Wunderground v.1.15,2013-07-17 23:35:00,
2013-07-17 19:40:00,77.0,74.8,30.10,WSW,241,2.0,2.0,93,0.00,,,0.09,Wunderground v.1.15,2013-07-17 23:40:00,
2013-07-17 19:45:00,77.0,74.5,30.10,WSW,243,2.0,2.0,92,0.00,,,0.09,Wunderground v.1.15,2013-07-17 23:45:00,
2013-07-17 19:50:00,76.9,74.7,30.10,WSW,241,2.0,2.0,93,0.00,,,0.09,Wunderground v.1.15,2013-07-17 23:50:00,
2013-07-17 19:59:00,76.7,74.5,30.11,SW,233,1.0,1.0,93,0.00,,,0.09,Wunderground v.1.15,2013-07-17 23:59:00,
2013-07-17 20:04:00,76.6,74.4,30.11,WSW,240,2.0,3.0,93,0.00,,,0.09,Wunderground v.1.15,2013-07-18 00:04:00,
2013-07-17 20:10:00,76.4,74.2,30.11,SW,227,2.0,2.0,93,0.00,,,0.09,Wunderground v.1.15,2013-07-18 00:10:00,
2013-07-17 20:15:00,76.3,74.4,30.11,SW,227,1.0,5.0,94,0.00,,,0.09,Wunderground v.1.15,2013-07-18 00:15:00,
2013-07-17 20:20:00,76.3,74.4,30.11,SW,229,0.0,5.0,94,0.00,,,0.09,Wunderground v.1.15,2013-07-18 00:20:00,
2013-07-17 20:25:00,76.2,74.3,30.12,SW,230,1.0,5.0,94,0.00,,,0.09,Wunderground v.1.15,2013-07-18 00:25:00,
2013-07-17 20:35:00,75.9,74.4,30.12,SW,233,1.0,5.0,95,0.00,,,0.09,Wunderground v.1.15,2013-07-18 00:35:00,
2013-07-17 20:39:00,75.9,74.4,30.13,SW,233,1.0,5.0,95,0.00,,,0.09,Wunderground v.1.15,2013-07-18 00:39:00,
2013-07-17 20:45:00,75.8,74.3,30.13,WSW,246,2.0,5.0,95,0.00,,,0.09,Wunderground v.1.15,2013-07-18 00:45:00,
2013-07-17 20:50:00,75.8,74.3,30.12,SW,228,1.0,5.0,95,0.00,,,0.09,Wunderground v.1.15,2013-07-18 00:50:00,
2013-07-17 20:55:00,75.6,74.4,30.12,SW,230,1.0,5.0,96,0.00,,,0.09,Wunderground v.1.15,2013-07-18 00:55:00,
2013-07-17 21:00:00,75.6,74.4,30.12,SW,225,1.0,1.0,96,0.00,,,0.09,Wunderground v.1.15,2013-07-18 01:00:00,
2013-07-17 21:04:00,75.7,74.5,30.12,SW,215,1.0,5.0,96,0.00,,,0.09,Wunderground v.1.15,2013-07-18 01:04:00,
2013-07-17 21:09:00,75.7,74.5,30.12,SW,227,1.0,5.0,96,0.00,,,0.09,Wunderground v.1.15,2013-07-18 01:09:00,
2013-07-17 21:14:00,75.7,74.5,30.12,SW,221,1.0,5.0,96,0.00,,,0.09,Wunderground v.1.15,2013-07-18 01:14:00,
2013-07-17 21:20:00,75.8,74.6,30.12,SW,236,1.0,5.0,96,0.00,,,0.09,Wunderground v.1.15,2013-07-18 01:20:00,
2013-07-17 21:25:00,75.8,74.6,30.12,SW,230,2.0,5.0,96,0.00,,,0.09,Wunderground v.1.15,2013-07-18 01:25:00,
2013-07-17 21:30:00,75.8,74.6,30.12,SW,227,2.0,2.0,96,0.00,,,0.09,Wunderground v.1.15,2013-07-18 01:30:00,
2013-07-17 21:35:00,75.8,74.6,30.12,SW,227,1.0,5.0,96,0.00,,,0.09,Wunderground v.1.15,2013-07-18 01:35:00,
2013-07-17 21:40:00,75.8,74.6,30.12,SW,227,1.0,5.0,96,0.00,,,0.09,Wunderground v.1.15,2013-07-18 01:40:00,
2013-07-17 21:45:00,75.8,74.6,30.13,WSW,240,1.0,5.0,96,0.00,,,0.09,Wunderground v.1.15,2013-07-18 01:45:00,
2013-07-17 21:49:00,75.8,74.6,30.13,West,263,2.0,2.0,96,0.00,,,0.09,Wunderground v.1.15,2013-07-18 01:49:00,
2013-07-17 21:54:00,75.8,74.6,30.13,West,266,2.0,5.0,96,0.00,,,0.09,Wunderground v.1.15,2013-07-18 01:54:00,
2013-07-17 22:00:00,75.7,74.2,30.13,West,278,2.0,5.0,95,0.00,,,0.09,Wunderground v.1.15,2013-07-18 02:00:00,
2013-07-17 22:05:00,75.8,73.0,30.13,West,266,2.0,5.0,91,0.00,,,0.09,Wunderground v.1.15,2013-07-18 02:05:00,
2013-07-17 22:10:00,75.9,72.4,30.14,WSW,257,3.0,5.0,89,0.00,,,0.09,Wunderground v.1.15,2013-07-18 02:10:00,
2013-07-17 22:15:00,75.7,72.2,30.14,WSW,240,5.0,8.0,89,0.00,,,0.09,Wunderground v.1.15,2013-07-18 02:15:00,
2013-07-17 22:20:00,75.3,72.2,30.14,WSW,248,6.0,6.0,90,0.00,,,0.09,Wunderground v.1.15,2013-07-18 02:20:00,
2013-07-17 22:24:00,74.9,72.1,30.14,WSW,248,5.0,6.0,91,0.00,,,0.09,Wunderground v.1.15,2013-07-18 02:24:00,
2013-07-17 22:29:00,74.5,72.0,30.14,West,259,5.0,5.0,92,0.00,,,0.10,Wunderground v.1.15,2013-07-18 02:29:00,
2013-07-17 22:35:00,74.1,71.9,30.14,WSW,252,4.0,5.0,93,0.00,,,0.10,Wunderground v.1.15,2013-07-18 02:35:00,
2013-07-17 22:40:00,74.0,72.2,30.14,West,278,2.0,2.0,94,0.00,,,0.10,Wunderground v.1.15,2013-07-18 02:40:00,
2013-07-17 22:45:00,73.8,72.0,30.14,West,269,2.0,5.0,94,0.00,,,0.10,Wunderground v.1.15,2013-07-18 02:45:00,
2013-07-17 22:50:00,73.7,72.2,30.14,WSW,253,2.0,5.0,95,0.00,,,0.10,Wunderground v.1.15,2013-07-18 02:50:00,
2013-07-17 22:55:00,73.5,72.0,30.14,West,280,2.0,5.0,95,0.00,,,0.10,Wunderground v.1.15,2013-07-18 02:55:00,
2013-07-17 23:00:00,73.5,72.0,30.14,WNW,291,3.0,3.0,95,0.00,,,0.10,Wunderground v.1.15,2013-07-18 03:00:00,
2013-07-17 23:04:00,73.5,72.0,30.14,WSW,255,3.0,4.0,95,0.00,,,0.10,Wunderground v.1.15,2013-07-18 03:04:00,
2013-07-17 23:09:00,73.6,71.8,30.14,West,261,2.0,5.0,94,0.00,,,0.10,Wunderground v.1.15,2013-07-18 03:09:00,
2013-07-17 23:15:00,73.5,71.4,30.14,West,274,2.0,5.0,93,0.00,,,0.10,Wunderground v.1.15,2013-07-18 03:15:00,
2013-07-17 23:20:00,73.5,71.4,30.14,WSW,246,2.0,5.0,93,0.00,,,0.10,Wunderground v.1.15,2013-07-18 03:20:00,
2013-07-17 23:25:00,73.4,71.6,30.14,SW,231,2.0,5.0,94,0.00,,,0.10,Wunderground v.1.15,2013-07-18 03:25:00,
2013-07-17 23:30:00,73.2,71.4,30.14,WSW,238,1.0,1.0,94,0.00,,,0.10,Wunderground v.1.15,2013-07-18 03:30:00,
2013-07-17 23:35:00,73.2,71.4,30.14,WSW,238,1.0,5.0,94,0.00,,,0.10,Wunderground v.1.15,2013-07-18 03:35:00,
2013-07-17 23:39:00,73.2,71.4,30.14,WSW,238,1.0,1.0,94,0.00,,,0.10,Wunderground v.1.15,2013-07-18 03:39:00,
2013-07-17 23:45:00,73.1,71.3,30.14,SW,235,1.0,5.0,94,0.00,,,0.10,Wunderground v.1.15,2013-07-18 03:45:00,
2013-07-17 23:50:00,73.2,71.4,30.14,West,265,1.0,5.0,94,0.00,,,0.10,Wunderground v.1.15,2013-07-18 03:50:00,
2013-07-17 23:55:00,73.2,71.4,30.14,WSW,240,1.0,5.0,94,0.00,,,0.10,Wunderground v.1.15,2013-07-18 03:55:00,